Regional Weather Roundup
Issued by NWS Grand Forks, ND

Home | Current Version | Previous Version | Text Only | Print | Product List | Glossary On
Versions: 1 2 3 4 5 6 7 8 9 10 11 12 13 14 15 16 17 18 19 20 21 22 23 24 25 26 27 28 29 30 31 32 33 34 35 36 37 38 39 40 41 42 43 44 45 46 47 48 49 50
000
ASUS43 KFGF 310331
RWRFGF
PRAIRIE TO PINES  WEATHER ROUNDUP
NATIONAL WEATHER SERVICE EASTERN NORTH DAKOTA/GRAND FORKS ND
1000 PM CDT SAT JUL 30 2016

 **SATELLITE DATA USED TO AUGMENT SKY COVER AT AUTOMATED STATIONS**
 *****  WEATHER ACROSS EASTERN NORTH DAKOTA  *****

CITY           SKY/WX    TMP DP  RH WIND       PRES   REMARKS
GRAND FORKS    PTCLDY    73  60  63 S12       29.88R
GRAND FRKS AFB CLEAR     71  62  72 S14       29.88S
DEVILS LAKE    CLEAR     73  63  70 SE12      29.87R
FARGO          CLEAR     73  58  59 S12       29.91R
WAHPETON ARPT  CLEAR     64  55  72 SE7       29.94S
$$

 ***** WEATHER ACROSS CENTRAL AND WESTERN NORTH DAKOTA  *****

CITY           SKY/WX    TMP DP  RH WIND       PRES   REMARKS
BISMARCK       CLEAR     75  64  68 SE15      29.80R
MINOT          CLEAR     74  64  71 E8        29.80R
JAMESTOWN      CLEAR     71  61  70 SE12      29.87R
MINOT AFB      CLEAR     72  62  71 E3        29.79R
GARRISON         N/A     75  66  73 E5        29.79S
WILLISTON      PTCLDY    77  57  50 E7        29.76R
DICKINSON      CLEAR     72  59  63 E8        29.78R
HETTINGER      CLEAR     78  58  49 E12       29.80R
$$

 *****  OTHER AIRPORT OBSERVATIONS IN OUR AREA  *****

CITY           SKY/WX    TMP DP  RH WIND       PRES   REMARKS
WALHALLA       FAIR      72  68  88 S12G20    29.86S
GRAFTON AIRPOR FAIR      70  66  88 SE8       29.89S
VALLEY CITY AR FAIR      70  63  78 SE10      29.92R
CANDO          FAIR      68  66  94 S9        29.87R
CAVALIER APRT  FAIR      72  64  78 SE6       29.87R
GWINNER        FAIR      68  61  77 SE10      29.92R
SHEYENNE NWR     N/A     68  58  71 SE8       29.95S
ROLLA          FAIR      64  64 100 CALM      29.87R
 ***** THE ABOVE OBSERVATIONS ARE NON NWS ARE NOT QUALITY
       CONTROLLED AND MAY MIS-REPORT RAIN FOR SNOW...
$$

  *****  WEATHER ACROSS NORTHERN MINNESOTA  *****

CITY           SKY/WX    TMP DP  RH WIND       PRES   REMARKS
FLAG ISLAND    PTCLDY    73  64  73 S10       29.93S
WARROAD        CLEAR     68  64  88 SE6       29.94R
ROSEAU         CLEAR     68  63  83 S8        29.93R
HALLOCK        CLEAR     70  64  83 S9        29.88S
THF RVR FALLS  PTCLDY    69  63  81 SE7       29.94R
BAUDETTE       CLEAR     66  59  78 S7        29.96R
WASKISH        CLEAR     63  61  94 CALM      29.98R
CROOKSTON      CLEAR     66  63  88 SE8       29.92R
STEPHEN NDAWN    N/A     70  63  78 SE5         N/A
GREENBUSH NDAW   N/A     70  63  78 S6          N/A
$$
  *****  WEATHER ACROSS CENTRAL AND WEST MINNESOTA  *****

CITY           SKY/WX    TMP DP  RH WIND       PRES   REMARKS
FOSSTON        CLEAR     63  54  72 SE5       29.96S
BEMIDJI        CLEAR     64  57  77 SE6       29.98S
PARK RAPIDS    CLEAR     71  59  65 SE5       29.98R
ELBOW LAKE     FAIR      66  59  78 SE3       29.97R
WADENA         CLEAR     64  59  82 CALM      29.98R
DETROIT LAKES  CLEAR     70  61  73 S6        29.98R
MOORHEAD       CLEAR     68  61  77 SE6       29.93S
FERGUS FALLS   CLEAR     68  59  73 SE6       29.97R
MORRIS MN      CLEAR     64  59  82 SE6       29.96R
STAPLES        CLEAR     68  61  77 E3        29.98S
$$
  *****  WEATHER ELSEWHERE ACROSS MINNESOTA  *****

CITY           SKY/WX    TMP DP  RH WIND       PRES   REMARKS
DULUTH         PTCLDY    63  59  87 E7        30.03R
INTRNTL FALLS  CLEAR     62  59  90 SE3       29.99R
ELY            CLEAR     64  57  77 S5        30.04R
CLOQUET        CLEAR     63  55  77 E5        30.03S
WHEATON        CLEAR     64  61  88 SE7       29.96R
BRAINERD       CLEAR     69  63  81 SE3       29.99R
HIBBING        CLEAR     59  58  96 CALM      30.02R
ALEXANDRIA     CLEAR     68  58  70 SE3       29.99R
SAINT CLOUD    PTCLDY    71  64  78 SE7       29.98R
MINNEAPOLIS    PTCLDY    74  64  71 SE8       29.99R
$$

  *****  WEATHER ACROSS SOUTH DAKOTA  *****

CITY           SKY/WX    TMP DP  RH WIND       PRES   REMARKS
SIOUX FALLS    CLOUDY    74  59  59 SE8       29.96R
BROOKINGS      MOCLDY    69  60  73 SE9       29.96R
WATERTOWN      CLOUDY    71  58  63 SE8       29.95R
HURON          MOCLDY    76  62  62 SE13      29.90R
SISSETON         N/A     66  60  81 S6        29.92R
ABERDEEN       PTCLDY    69  59  70 SE9       29.89R
MITCHELL       PTCLDY    75  63  66 SE9       29.92R
PIERRE         MOCLDY    71  66  84 S18G28    29.83F THUNDER
MOBRIDGE       CLEAR     70  64  81 MISG      29.81R
RAPID CITY     TSTM      63  61  93 SE18G26   29.84F
$$

  *****  SOME WEATHER IN NEARBY STATES *****

CITY           SKY/WX    TMP DP  RH WIND       PRES   REMARKS
GLASGOW MT     LGT RAIN  74  60  61 NE14G22   29.70R
GREAT FALLS MT CLEAR     77  36  22 W9        29.69R
CHEYENNE WY    MOCLDY    74  57  55 S15       30.07R
SCOTTSBLUFF NE MOCLDY    80  60  50 SE13      29.88F
OMAHA NE       PTCLDY    75  64  68 SE6       29.96R
DES MOINES IA  CLEAR     76  66  71 SE7       29.97R
DAVENPORT IA   CLEAR     70  66  87 E3        30.00R
CHICAGO IL     MOCLDY    70  64  81 NE8       30.00S
EAU CLAIRE WI  CLEAR     71  63  75 SE7       30.01R
LA CROSSE WI   CLEAR     72  66  81 E6        30.00R
$$

  *****  SOME NATIONAL WEATHER *****

CITY           SKY/WX    TMP DP  RH WIND       PRES   REMARKS
LA GUARDIA NY  CLOUDY    76  72  87 SE9       30.03F
RALEIGH NC     MOCLDY    79  74  84 CALM      30.01R
ATLANTA GA     PTCLDY    75  73  93 SW5       30.05R
NEW ORLEANS LA PTCLDY    86  75  69 SW7       30.02R HX  95
OKLAHOMA CITY  PTCLDY    82  71  69 SE8       29.92R
ALBUQUERQUE NM TSTM      65  60  84 E13       30.19R
SALT LAKE CITY MOCLDY    92  47  21 N3        29.88R
LOS ANGELES CA PTCLDY    71  65  81 W7        29.83S
BOISE ID       CLEAR     93  28  10 NW5       29.72S
SEATTLE WA     PTCLDY    70  56  61 S8        29.92F
$$

*** WEATHER ACROSS MANITOBA...SASKATCHEWAN AND ONTARIO ***
                ***ONTARIO***

CITY           SKY/WX    TMP DP  RH WIND       PRES   REMARKS
GERALDTON      MOCLDY    61  50  67 S5        30.06R
THUNDER BAY    CLEAR     63  61  94 NE3       30.04
SIOUX LOOKOUT  MOCLDY    59  55  88 CALM      29.98R
TORONTO        MOCLDY    73  54  49 E7        30.04S
BIG TROUT LK   CLOUDY    73  59  60 SE8       29.88R
PICKLE LAKE    NOT AVBL
DRYDEN         CLEAR     68  59  73 S7        29.99R
KENORA         MOCLDY    68  63  83 S7        29.96R
$$
                *** MANITOBA***

CITY           SKY/WX    TMP DP  RH WIND       PRES   REMARKS
BRANDON        MOCLDY    72  66  83 SE7       29.82R
DAUPHIN        CLEAR     70  63  78 S5        29.78R
ISLAND LAKE    PTCLDY    73  61  64 S3        29.82R
PILOT MOUND      N/A     66  63  88 SE7         N/A
THE PAS        CLOUDY    72  64  78 SE5       29.75R
THOMPSON       PTCLDY    66  63  88 NE7       29.79R
WINNIPEG       MOCLDY    72  64  78 S10       29.86R
LYNN LAKE      PTCLDY    63  57  82 MISG      29.80R
CHURCHILL      CLOUDY    48  46  93 E9        29.92S
GILLAM         MOCLDY    63  61  94 NE6       29.82R
$$
                ***SASKATCHEWAN***

CITY           SKY/WX    TMP DP  RH WIND       PRES   REMARKS
ESTEVAN        PTCLDY    68  63  83 E8        29.78F
KINDERSLEY     MOCLDY    68  64  88 SE8       29.64F
LLOYDMINSTER   CLOUDY    59  59 100 NW6       29.73R
PRINCE ALBERT  MOCLDY    68  64  88 E6        29.70S
REGINA         PTCLDY    73  57  56 SE12G17   29.72R
YORKTON        CLEAR     72  63  73 SE7       29.76S
N. BATTLEFORD  NOT AVBL
LA RONGE       CLOUDY    64  61  88 W2        29.73
SASKATOON      PTCLDY    68  64  88 SE7       29.69S
SWIFT CURRENT  CLEAR     64  59  82 S12       29.68F
$$
NOTE: THESE ARE AUTOMATED STATIONS WITH LIMITED QUALITY CONTROL
      "FAIR" INDICATES FEW OR NO CLOUDS BELOW 12,000 FEET WITH NO
      SIGNIFICANT WEATHER AND/OR OBSTRUCTIONS TO VISIBILITY.
      SKY/WX - SKY CONDITION AND SIGNIFICANT WEATHER.
      TMP - AIR TEMPERATURE.    DP   - DEWPOINT TEMPERATURE.
      RH  - RELATIVE HUMIDITY.  PRES - PRESSURE.
      HX  - HEAT INDEX.         WCI  - WIND CHILL INDEX.
$



USA.gov is the U.S. government's official web portal to all federal, state and local government web resources and services.